GFSMW_500_rhum_144.txt.gz
RH
9 9 8 6 7 8 8 24 20 20 19 17 17 14 10 10 10 12 12 5 5 7 7 8 9 7 7 6 5 4 5 6 5 5 5 6 6 6 6 6 8 9 9
7 7 6 7 8 8 16 13 19 19 18 17 15 11 10 10 12 12 6 4 7 6 6 7 7 6 6 6 4 4 4 5 7 7 6 6 7 8 7 7 7 8 8
6 7 7 8 8 10 10 17 21 18 17 16 12 10 10 11 13 9 4 5 7 6 6 6 6 6 6 6 6 6 7 7 7 7 7 7 8 8 7 7 7 8 10
7 8 9 8 8 9 18 22 18 15 14 14 11 10 11 14 12 5 5 6 7 6 6 6 6 6 8 8 8 8 9 9 10 10 10 10 10 11 11 12 13 14 13
9 9 9 8 10 17 23 19 14 12 14 12 10 11 15 14 8 5 5 6 6 6 5 6 6 9 9 9 8 8 8 8 8 8 9 10 15 18 18 19 19 19 20
10 9 12 20 22 24 20 13 11 13 13 9 12 14 15 11 6 6 5 6 6 6 5 6 7 8 8 8 8 8 13 19 23 25 25 23 19 18 19 20 20 21 28
10 19 24 25 23 17 11 11 13 12 8 13 14 14 10 7 8 6 7 7 6 5 5 6 7 8 9 11 12 15 18 22 25 25 23 21 22 23 24 24 25 26 28
21 29 27 22 13 12 12 13 11 8 14 14 13 10 7 8 6 8 7 6 5 5 6 7 8 9 13 16 19 23 25 25 24 24 25 28 33 38 42 40 40 41 44
29 28 23 13 12 13 13 10 9 14 14 11 7 7 7 7 8 8 10 8 6 8 7 8 9 14 19 22 27 30 33 37 40 45 48 50 49 48 47 40 42 47 42
27 20 14 13 15 14 11 11 15 12 9 5 6 5 8 8 9 10 10 9 9 9 9 10 16 20 22 26 35 43 48 53 53 53 50 43 40 40 41 41 42 42 38
19 14 15 18 16 13 13 16 12 8 5 6 5 8 8 9 10 10 10 9 9 9 11 15 21 27 34 41 47 51 52 52 48 42 39 34 37 40 40 40 37 32 26
15 18 20 19 13 14 17 12 10 6 6 4 8 9 10 10 10 9 9 9 10 11 16 27 38 46 49 49 51 52 53 46 40 39 41 42 41 39 35 29 24 17 16
20 21 20 14 14 17 15 11 7 6 4 8 8 9 10 10 9 10 10 10 14 25 35 42 47 51 56 58 58 55 51 49 48 47 47 44 40 38 31 24 18 19 17
21 18 16 18 17 15 12 7 7 4 7 10 9 9 10 10 11 11 12 19 31 40 44 48 54 59 60 61 59 55 55 54 53 53 48 48 46 40 29 24 22 20 19
20 20 19 16 14 11 8 8 5 5 11 11 10 10 11 12 13 18 30 39 42 46 52 54 59 61 63 64 61 57 59 61 60 59 57 55 48 33 26 25 22 19 13
20 20 17 16 12 9 9 6 7 12 13 11 11 12 14 12 17 31 44 49 51 56 62 66 66 68 63 59 60 65 68 68 68 65 61 48 34 29 26 24 17 14 12
20 17 13 12 11 10 6 8 15 13 11 11 14 15 19 35 48 52 57 68 75 76 76 78 77 73 68 73 74 70 66 69 66 60 47 36 32 30 22 16 16 14 12
15 12 11 10 10 7 9 14 13 11 12 15 17 28 49 57 62 67 71 74 77 78 81 83 81 81 85 80 77 74 74 68 58 42 38 36 32 24 16 14 15 14 13
12 11 10 7 7 12 15 13 14 15 15 25 42 55 64 70 74 78 81 79 78 83 88 89 85 80 84 82 80 78 67 49 42 40 38 27 18 17 18 17 18 18 13
8 7 8 13 14 14 15 14 23 47 57 62 68 72 77 77 74 74 80 91 91 83 83 84 88 86 84 92 82 64 51 46 48 42 28 25 22 23 24 23 22 19 14
13 14 14 14 14 15 33 56 58 60 65 69 76 74 66 68 68 70 78 79 82 86 89 85 91 99 100 90 73 59 55 58 55 36 26 22 22 18 24 27 23 17 12
14 16 29 46 55 58 58 59 61 64 66 66 67 74 78 80 81 80 86 89 89 86 87 90 94 97 84 75 74 80 81 58 29 22 19 17 16 15 18 21 18 15 10
61 60 59 58 57 55 55 56 56 59 62 67 69 70 77 88 96 97 99 99 100 99 96 95 91 88 94 98 82 54 38 32 26 20 18 16 14 12 12 13 12 10 7
54 51 49 48 50 53 54 56 57 58 60 64 69 74 77 85 97 100 100 100 100 100 100 100 98 88 71 51 36 30 26 23 20 18 16 13 12 8 5 6 8 7 6
50 52 53 54 54 55 56 56 56 59 65 67 71 78 86 92 94 97 98 96 96 89 76 58 40 29 22 18 17 16 16 16 15 13 11 9 6 3 4 6 6 5 5
53 54 55 57 59 63 70 71 68 72 76 80 87 92 93 92 87 81 78 72 50 30 22 20 17 13 11 10 9 9 8 7 6 5 3 3 3 4 5 5 5 5 6

GFSMW_500_rhum_147.txt.gz
RH
20 12 14 13 12 9 6 7 8 13 17 15 19 16 15 13 12 11 11 11 6 4 7 6 6 6 5 5 5 6 4 4 5 5 6 6 6 6 7 8 8 8 7
9 10 10 8 9 8 6 8 8 13 13 19 19 16 14 13 12 11 12 11 5 4 7 6 6 6 5 6 7 7 7 7 7 8 8 8 8 8 8 8 8 9 10
5 6 6 6 7 6 7 8 9 10 18 20 17 15 13 13 12 12 13 8 5 4 7 6 6 5 6 7 9 9 9 9 9 10 10 10 10 10 10 10 11 13 16
6 6 6 6 6 6 8 8 9 16 21 18 15 14 13 12 12 14 10 7 5 5 7 6 6 6 5 5 6 8 7 7 7 7 7 11 16 20 21 20 19 16 17
6 6 6 6 7 8 8 12 20 22 19 14 14 13 12 11 14 12 8 6 6 5 7 6 6 6 5 5 6 8 8 8 10 14 18 19 21 23 23 19 17 20 21
6 7 15 50 11 8 16 21 22 19 14 13 12 11 12 14 13 8 6 7 6 6 7 6 6 5 5 6 7 9 11 13 16 18 20 22 23 24 24 25 28 32 35
8 9 18 12 9 13 23 24 18 12 12 13 12 11 14 13 7 6 7 5 7 6 7 6 5 5 6 8 8 10 14 18 22 26 30 32 34 38 43 45 48 49 49
10 10 9 10 16 27 26 16 12 13 13 12 10 14 13 7 6 6 6 7 8 9 9 8 7 7 8 9 12 17 21 27 30 35 39 43 46 48 47 46 43 45 44
10 10 12 20 25 27 19 13 13 14 12 10 15 13 6 5 5 6 8 9 10 11 10 9 8 9 10 12 18 23 27 35 38 43 47 47 45 45 45 44 40 39 38
10 13 22 28 29 22 13 13 15 13 10 16 14 7 5 5 6 8 9 10 10 10 10 10 10 11 12 15 24 31 38 47 52 51 49 50 48 46 44 42 42 43 39
27 31 32 31 18 14 15 15 12 11 16 16 10 6 6 5 8 9 10 10 11 11 10 10 10 11 15 19 30 42 49 51 54 56 56 44 44 45 48 49 48 45 42
35 35 33 18 15 16 16 13 11 17 16 12 7 7 4 7 9 9 10 10 10 10 10 10 13 18 26 34 38 44 50 55 58 60 58 52 52 56 56 56 53 51 51
33 27 16 16 18 18 14 12 18 18 12 9 8 6 5 10 10 10 10 9 11 10 10 12 18 33 44 50 52 56 63 64 65 65 61 56 58 66 67 64 63 61 55
19 16 17 18 19 16 15 19 17 12 10 10 7 5 8 12 11 9 9 10 11 13 24 40 50 54 61 65 67 67 67 66 68 64 60 70 73 72 67 65 64 57 45
16 18 20 20 18 17 20 18 16 13 11 10 6 8 12 11 10 9 12 13 24 47 55 58 63 68 71 69 66 64 67 72 72 71 74 74 73 70 70 66 61 47 36
19 21 22 20 20 21 19 14 16 13 10 6 9 12 11 10 12 14 15 36 55 62 66 68 72 78 76 70 68 62 68 75 78 81 82 80 79 80 73 58 43 39 35
23 25 23 22 25 20 14 14 12 10 6 8 14 13 14 14 16 30 50 60 68 74 78 76 69 74 85 83 81 80 72 79 86 86 86 85 83 69 51 47 44 38 28
26 25 26 22 16 12 10 8 6 7 14 15 16 16 21 46 59 64 68 72 73 69 71 78 81 79 92 89 90 89 86 84 84 93 98 95 76 59 61 61 56 51 35
24 21 18 11 9 8 7 8 13 15 16 16 22 53 60 66 70 73 74 70 68 74 76 83 88 91 95 100 100 97 88 86 91 100 100 100 98 98 96 93 93 69 32
21 12 8 7 7 11 15 16 17 18 36 61 64 69 70 70 69 68 66 66 66 70 75 82 97 100 100 100 100 100 97 92 90 94 100 100 100 100 100 91 56 35 32
8 6 8 14 16 16 22 44 61 65 68 68 66 61 60 61 57 59 60 66 71 82 89 96 99 100 100 99 100 100 100 100 95 95 92 88 61 46 42 34 30 24 20
11 15 16 24 53 63 63 62 60 56 54 54 55 56 58 59 62 67 74 82 87 91 96 95 92 89 86 91 97 94 79 56 37 28 21 19 18 16 15 14 13 12 12
22 52 64 61 54 52 52 52 51 50 50 52 57 61 67 73 80 84 88 92 96 94 88 78 71 70 72 62 41 30 26 23 18 15 13 11 10 10 10 9 8 8 7
56 51 51 52 53 52 52 51 50 51 57 65 70 75 81 88 94 98 98 92 83 76 70 60 48 38 30 25 20 16 15 14 12 10 10 9 9 8 6 5 4 4 4
52 51 52 55 56 54 48 42 44 54 67 77 86 94 99 100 98 91 79 68 55 41 36 33 29 26 22 19 16 14 12 9 8 7 6 5 3 3 3 4 5 6 7
58 58 55 50 44 46 51 47 59 73 81 89 92 94 93 86 74 63 52 41 37 32 27 25 23 19 15 12 9 8 7 5 4 4 5 6 8 10 10 10 11 11 10

GFSMW_500_rhum_153.txt.gz
RH
22 22 25 21 18 19 19 18 17 15 12 12 9 6 8 10 14 19 18 14 12 13 13 11 4 3 3 5 7 6 5 5 5 7 8 7 7 7 8 8 8 8 9
19 22 20 19 20 20 20 19 18 15 13 12 8 7 8 9 18 19 18 13 12 12 14 7 3 4 4 4 6 6 6 6 4 4 7 8 8 8 8 9 12 15 16
12 15 19 21 21 21 21 21 18 14 11 12 6 7 8 16 18 20 16 12 12 14 13 4 3 4 5 4 5 7 7 6 5 6 8 9 9 10 11 8 9 11 15
10 12 13 15 22 23 22 18 15 10 13 7 6 8 14 16 19 19 12 12 13 15 7 4 4 4 5 5 6 6 6 5 6 6 8 9 9 9 8 10 11 16 24
8 10 13 18 26 25 18 15 11 15 8 6 8 11 13 20 22 15 12 12 15 13 4 4 4 5 6 6 6 6 6 6 6 6 8 9 9 9 8 10 13 29 34
8 9 13 24 26 20 12 9 6 7 12 16 21 12 18 24 20 12 12 14 16 8 4 4 5 6 6 8 8 7 7 6 6 8 9 8 9 9 9 12 22 33 41
7 7 10 10 11 10 6 6 6 17 37 28 10 16 26 25 14 12 13 17 15 6 4 4 6 7 8 9 9 9 8 8 8 8 8 9 10 12 16 24 35 40 44
8 8 9 8 7 6 7 8 8 28 28 16 13 26 29 18 13 12 15 18 11 6 5 5 6 8 9 9 9 10 9 8 8 8 9 12 21 31 40 41 43 44 43
8 8 7 7 7 8 18 21 13 25 26 10 21 30 27 15 13 13 19 17 10 6 6 5 7 8 9 9 9 9 8 8 9 10 19 32 43 46 50 53 54 49 42
8 7 7 7 8 14 30 31 10 16 9 14 26 30 20 13 12 16 20 14 8 7 5 5 7 8 9 9 9 8 9 10 14 30 44 50 52 57 62 63 61 56 49
8 8 8 10 21 38 44 11 9 9 12 25 31 24 15 12 14 21 18 10 7 7 6 5 8 10 10 9 9 9 10 13 34 48 54 60 62 67 68 61 59 53 54
10 13 17 46 56 32 10 9 9 13 24 32 26 16 13 14 21 23 17 10 7 7 6 6 10 11 10 9 10 11 14 28 50 58 63 70 70 69 67 62 58 64 68
12 16 21 31 10 10 10 10 16 25 33 32 20 16 16 22 25 18 10 9 8 6 7 12 12 11 11 13 15 27 42 54 61 69 74 78 76 70 76 75 72 77 76
13 12 15 11 10 10 15 22 31 36 33 22 16 17 24 25 20 11 8 9 8 7 11 12 12 13 14 27 48 57 62 66 70 74 78 76 77 82 86 88 88 88 84
13 12 12 11 18 26 32 35 36 35 23 17 19 26 25 21 11 8 8 8 8 12 14 15 15 19 47 58 59 60 60 62 67 73 76 78 82 91 97 92 92 92 90
13 14 20 29 34 37 38 38 29 20 19 24 27 21 17 8 8 7 7 13 14 15 17 26 46 62 62 62 66 63 62 69 70 70 76 81 87 96 100 100 100 100 95
31 33 36 38 40 38 31 23 20 22 28 25 18 12 8 8 8 11 14 16 26 44 56 60 60 62 68 71 70 68 68 72 78 83 86 88 93 99 100 100 100 100 100
41 38 40 40 35 27 23 23 28 27 20 18 10 7 6 11 14 18 36 55 59 57 56 59 65 68 72 79 87 88 88 89 86 81 78 80 85 91 91 87 82 80 78
33 32 28 25 24 25 27 27 21 18 15 8 6 10 15 21 47 58 55 52 54 59 66 72 76 83 88 90 92 81 71 71 72 75 77 72 60 46 38 37 34 32 30
28 27 27 27 28 28 22 18 17 10 6 8 14 20 51 57 54 53 56 61 67 72 77 82 84 82 82 76 72 68 65 63 58 56 50 47 45 43 38 32 26 22 19
31 32 31 28 20 17 17 13 7 7 13 22 51 57 53 53 59 66 71 74 73 73 73 65 63 57 56 60 63 61 58 56 51 45 36 27 20 16 13 11 10 9 9
30 23 18 14 16 12 8 8 16 37 57 56 53 55 62 67 70 69 72 68 64 57 52 48 48 51 55 56 53 46 36 26 19 16 14 12 12 11 11 10 9 7 6
14 15 17 11 8 12 26 56 58 53 54 58 62 67 67 64 59 55 56 52 48 45 43 44 46 44 39 28 20 15 14 14 14 13 13 13 13 11 8 6 7 10 12
15 10 11 22 48 55 52 57 61 61 62 64 64 60 57 55 51 48 45 41 39 41 43 42 34 23 16 15 15 15 14 14 13 12 11 10 7 7 9 15 18 22 22
30 51 53 54 61 61 59 60 60 60 59 58 56 53 48 45 42 39 35 34 45 47 37 28 22 19 18 18 19 18 14 12 11 10 8 6 9 15 23 24 31 44 68
52 61 61 60 59 57 57 58 59 57 54 50 44 42 39 35 33 26 25 37 39 37 29 26 26 23 22 22 17 14 12 11 7 5 8 13 21 26 27 35 58 82 90

GFSMW_500_rhum_159.txt.gz
RH
45 58 59 69 72 31 22 17 14 14 15 16 16 16 16 14 13 12 13 18 7 15 19 19 16 12 13 14 8 3 2 3 3 4 5 7 7 5 6 7 8 9 9
39 49 61 76 40 32 25 17 14 15 15 17 18 18 17 16 14 12 9 11 8 17 19 21 16 12 14 14 8 3 3 3 3 4 4 6 7 6 6 6 7 9 9
41 52 66 82 52 31 22 18 15 15 18 18 21 23 18 18 14 18 7 6 10 15 17 21 14 13 15 14 9 3 3 4 4 4 5 6 7 6 7 6 6 8 8
38 52 69 79 42 33 23 19 19 18 18 21 23 20 19 17 18 19 8 16 20 19 18 22 14 14 16 15 10 4 3 4 4 4 6 6 7 6 7 7 7 8 8
41 52 55 35 42 33 26 22 23 21 20 20 21 21 20 18 14 10 24 41 33 15 22 24 15 15 18 17 11 5 4 4 5 6 8 7 7 7 6 8 8 8 8
41 49 43 30 33 31 26 24 24 21 21 22 22 22 20 10 10 29 30 28 16 17 26 24 15 17 19 18 12 6 4 4 4 7 8 8 8 8 8 8 8 8 10
40 49 49 30 30 33 27 24 23 22 22 23 24 23 21 27 30 26 26 28 19 20 26 23 15 19 21 18 12 6 5 4 4 6 7 8 8 8 7 6 7 8 12
41 43 36 26 43 33 33 28 26 25 23 23 26 22 12 10 19 26 25 25 17 19 27 18 17 21 21 16 9 5 5 5 5 5 7 8 8 9 8 8 7 8 10
40 38 29 26 39 28 22 22 22 21 19 22 26 12 7 13 33 36 27 14 12 23 24 17 20 22 19 14 8 6 7 6 6 6 9 10 10 9 8 8 9 10 17
38 37 26 17 18 18 17 17 19 20 21 22 10 8 17 36 47 46 12 10 19 31 24 19 22 19 16 12 7 8 7 7 6 8 12 12 12 13 18 30 44 47 40
36 32 23 12 11 12 14 16 19 19 11 7 7 20 33 36 39 15 10 13 29 26 20 22 19 16 12 8 6 7 7 8 12 12 15 26 38 51 55 53 50 48 46
33 28 20 14 11 13 13 10 8 8 7 7 22 36 37 27 10 10 13 31 31 22 22 19 16 12 7 6 6 7 10 13 19 39 55 59 56 57 54 52 52 53 56
29 26 21 14 11 10 9 9 8 7 7 34 42 24 13 10 10 14 34 28 23 22 19 16 13 7 6 6 10 16 25 46 56 55 52 52 52 51 50 49 45 43 39
25 20 16 13 11 10 9 8 7 23 48 41 22 11 10 12 21 37 26 24 22 19 17 14 8 6 8 14 28 50 54 54 55 57 57 56 52 49 45 40 35 30 26
21 17 14 12 11 10 9 8 12 36 33 20 12 13 16 33 36 26 24 21 18 17 14 8 6 10 18 44 52 51 54 58 61 60 56 52 44 37 30 24 19 15 12
21 16 14 12 11 10 10 16 22 21 15 12 18 30 42 37 27 24 21 18 18 13 7 6 15 38 56 54 54 55 56 58 56 51 42 33 27 19 11 11 15 14 13
18 16 14 12 12 12 13 14 14 14 14 22 35 43 31 26 22 19 18 17 11 7 11 36 55 57 58 61 62 61 56 50 39 30 23 14 7 7 10 15 18 20 19
16 16 15 15 15 15 15 15 15 20 30 39 35 27 24 21 18 18 15 8 10 36 55 57 60 63 69 65 58 49 38 29 20 11 6 4 5 13 17 18 21 24 24
21 19 19 19 18 16 18 22 28 39 36 29 26 23 19 18 15 10 10 34 56 58 62 66 70 67 59 48 38 28 22 14 8 7 8 11 13 20 27 33 33 31 31
24 23 20 19 22 30 37 44 38 32 27 23 20 17 16 11 11 34 56 59 64 70 72 69 58 44 36 29 23 17 9 5 5 8 16 26 34 37 34 29 26 24 23
32 29 36 45 47 46 39 34 28 25 22 18 17 12 11 33 57 62 67 71 72 65 54 44 35 28 24 19 11 6 5 9 13 19 26 29 27 23 22 25 26 22 14
56 53 48 42 38 35 29 25 21 18 16 13 13 37 58 64 68 71 71 61 49 40 34 28 24 20 13 11 10 12 16 20 22 26 30 29 23 23 26 22 14 6 5
45 42 38 34 28 24 21 20 16 13 15 43 60 66 69 70 64 55 46 40 34 29 26 24 18 11 8 12 14 16 22 28 31 35 32 22 24 24 17 8 6 6 8
42 37 27 23 23 20 19 15 20 51 61 67 70 69 57 47 43 38 34 30 27 25 18 12 10 10 10 11 13 19 27 31 31 22 18 24 21 12 6 6 8 14 20
24 22 24 24 19 20 38 56 65 69 70 65 52 43 40 38 34 31 29 26 19 15 13 13 12 11 12 15 17 22 24 19 14 18 20 17 8 5 6 9 13 16 21
26 21 19 37 54 63 74 74 68 58 46 40 37 34 31 28 29 26 20 15 14 13 11 13 16 15 22 25 24 26 20 21 24 20 12 6 6 7 9 12 20 42 64

GFSMW_500_rhum_162.txt.gz
RH
22 48 54 60 64 74 84 56 27 18 14 14 15 15 16 15 16 14 14 13 12 10 10 14 16 18 20 17 14 14 13 11 5 3 2 3 3 3 6 7 6 6 7
28 48 52 57 62 75 93 78 26 18 15 14 16 16 17 17 17 16 15 17 15 11 8 15 16 18 19 18 14 14 14 13 7 3 3 3 4 4 4 6 7 6 6
52 49 51 56 63 77 98 93 30 19 16 15 16 17 18 19 20 20 18 17 18 10 22 30 28 18 22 19 15 16 16 14 9 4 3 4 4 6 6 6 7 7 7
55 50 50 56 67 89 98 93 41 22 17 16 16 17 19 22 23 24 18 17 13 20 34 32 27 20 25 20 17 18 18 14 10 6 4 4 4 6 9 9 8 7 7
56 49 50 67 80 100 96 71 42 25 19 17 17 20 23 23 23 20 17 9 22 29 30 21 16 25 24 21 18 19 18 14 10 6 5 4 4 4 6 9 9 9 9
62 49 51 75 93 94 95 53 39 25 20 18 18 21 22 23 22 20 11 11 27 44 27 25 22 19 22 20 18 20 17 13 10 6 5 5 5 5 5 6 7 9 9
64 48 46 73 88 99 98 76 41 26 21 21 21 22 23 23 23 20 23 19 35 26 23 19 15 21 24 20 20 19 16 13 10 7 6 6 6 5 5 5 6 7 9
55 45 46 70 86 98 90 59 39 27 23 22 23 24 24 24 25 21 8 8 21 32 34 23 13 23 26 20 20 18 15 12 9 6 6 6 6 6 6 7 8 8 8
51 44 45 61 69 51 64 52 36 26 24 24 25 25 25 24 26 14 7 17 37 44 33 13 21 29 22 21 18 16 13 8 6 6 6 6 6 9 11 16 23 24 24
52 46 44 43 38 54 60 49 38 31 29 29 28 25 23 24 17 8 16 36 35 32 14 22 31 25 22 19 17 14 9 6 6 6 7 9 14 23 36 42 40 37 34
48 44 42 37 40 50 57 42 35 32 30 25 22 21 23 14 7 12 32 34 24 11 19 29 27 23 20 17 14 12 7 6 7 11 20 37 45 48 46 45 45 45 43
45 41 33 28 35 53 53 40 28 25 22 20 22 19 10 7 10 30 39 19 13 23 29 28 24 20 17 15 14 9 6 7 13 31 50 50 47 50 50 48 47 45 44
41 38 30 23 21 21 22 23 23 22 24 20 11 9 8 12 35 32 15 16 27 31 29 24 20 18 16 14 8 6 8 20 46 50 49 51 53 56 56 53 51 47 39
38 34 29 24 21 23 25 23 22 16 11 10 9 8 14 34 27 15 16 30 34 29 24 22 19 17 14 8 7 15 38 51 52 53 54 53 54 52 46 37 28 24 20
35 30 26 22 18 15 14 13 13 13 10 9 10 23 31 22 16 20 35 34 29 23 22 20 18 12 8 11 35 50 52 53 56 62 60 52 39 29 25 22 19 13 8
40 36 32 28 24 19 16 14 12 11 11 12 16 23 18 15 23 40 32 25 23 22 20 17 10 9 32 52 53 52 52 57 58 46 33 28 25 21 16 10 6 5 7
46 40 32 23 18 17 15 14 14 14 15 18 18 16 19 35 37 28 23 24 23 20 13 10 28 58 60 59 59 58 53 41 32 28 26 22 16 10 7 6 5 7 10
30 25 21 20 19 19 20 18 16 17 18 17 19 31 40 32 26 25 24 21 16 11 20 56 61 67 65 60 52 39 31 28 26 23 19 15 11 8 7 7 8 8 14
31 23 20 20 21 19 19 18 19 18 20 31 39 37 29 26 26 23 20 13 15 48 66 70 67 62 52 38 32 28 27 25 19 14 12 10 9 10 12 14 19 21 29
32 28 26 22 20 20 22 22 26 34 42 42 32 29 27 25 22 15 15 48 67 72 69 64 50 38 34 30 26 24 18 16 17 17 15 14 14 18 22 22 19 16 20
32 28 26 26 26 29 36 45 47 41 33 29 29 27 25 16 17 50 69 72 67 60 47 38 34 30 27 23 18 18 19 22 25 25 24 19 16 12 14 20 24 26 24
38 39 41 47 50 51 46 40 35 32 30 28 25 18 19 54 71 71 66 56 44 36 32 27 26 24 18 18 22 24 26 27 27 22 10 7 8 12 22 28 21 15 10
63 59 54 48 44 39 36 33 29 27 23 19 22 59 73 73 66 54 42 34 28 24 22 22 22 24 31 32 33 34 33 29 19 14 9 9 14 21 19 13 8 6 6
49 46 43 39 38 32 29 27 24 20 32 66 76 74 63 50 39 31 25 22 21 22 23 24 25 29 32 32 30 24 13 5 3 4 5 13 16 12 8 5 6 8 9
42 40 36 32 29 26 23 23 49 73 81 73 60 48 36 28 23 21 20 21 22 24 25 26 27 27 26 23 14 6 2 2 4 6 12 12 10 5 5 7 9 13 28
32 31 29 26 23 36 62 81 84 72 57 47 34 26 23 20 18 20 24 24 24 28 30 30 30 27 19 9 4 2 4 8 15 15 11 6 4 7 10 11 26 69 69

GFSMW_500_rhum_168.txt.gz
RH
12 9 12 29 66 50 61 76 73 70 67 65 62 56 34 18 15 15 15 14 13 14 13 14 17 18 12 31 39 35 26 24 21 19 20 19 17 14 10 6 5 4 4
13 10 22 24 88 46 66 73 74 72 72 67 62 58 32 18 16 17 16 15 15 15 15 15 19 20 20 34 41 45 24 22 19 18 19 19 19 16 12 8 5 5 4
13 12 23 30 98 61 59 76 77 76 74 70 68 58 30 19 17 18 18 16 16 18 17 19 36 26 21 29 45 39 22 18 18 18 19 20 20 17 13 8 6 5 4
12 14 20 50 83 64 59 74 73 98 75 76 86 88 36 19 19 20 19 18 19 19 20 34 35 16 29 36 54 30 31 24 18 20 22 22 22 17 12 8 6 4 4
15 16 20 39 70 90 91 75 76 97 78 83 90 93 39 21 20 22 21 20 20 21 26 40 23 11 14 40 32 35 40 24 17 21 24 23 22 18 12 8 6 4 4
18 24 76 80 94 82 92 83 72 87 87 79 90 95 59 26 21 23 23 22 22 23 45 45 18 14 12 16 33 38 34 18 19 25 25 23 20 17 11 8 6 5 6
23 28 48 100 84 73 94 86 72 78 93 96 97 97 96 26 22 23 23 24 24 26 47 30 20 14 10 23 32 29 20 18 24 28 23 22 19 14 11 8 6 4 8
29 52 43 95 100 84 99 89 81 70 97 96 96 96 60 28 23 24 23 24 24 31 33 36 28 17 12 24 32 22 14 21 27 24 22 20 16 12 10 7 5 4 11
35 79 98 100 100 93 98 82 91 96 90 98 97 95 88 34 25 24 25 26 45 64 31 45 23 13 13 28 28 17 24 26 26 23 22 18 14 12 9 6 5 11 20
40 85 100 98 94 95 85 71 94 100 97 88 98 97 93 37 28 26 25 34 58 57 52 28 14 10 18 30 20 22 26 27 24 24 21 17 15 10 7 10 26 40 38
49 100 99 83 100 71 78 81 90 76 77 92 98 96 88 52 33 28 29 31 41 56 35 19 10 16 25 25 23 28 28 26 25 23 19 14 10 9 25 49 55 56 50
95 100 92 93 99 66 83 94 90 98 100 98 96 85 68 38 31 32 49 71 49 43 21 10 14 23 26 26 27 29 26 25 24 21 15 10 15 51 59 57 50 38 28
76 100 100 91 94 71 74 96 97 98 99 96 96 83 74 63 35 54 60 60 43 19 11 15 23 26 26 28 29 26 25 24 20 13 11 36 58 59 48 36 26 20 16
89 97 97 86 78 64 96 97 93 100 97 93 85 83 73 41 65 68 64 38 18 13 15 22 25 26 29 28 26 26 24 18 13 25 53 56 48 35 24 19 17 15 15
68 77 94 77 61 78 97 94 98 96 91 82 77 62 47 39 47 40 29 18 14 14 18 23 26 29 27 27 26 23 15 22 56 59 48 34 24 19 16 13 11 11 11
90 90 91 63 56 94 98 100 97 91 87 74 50 38 38 41 33 22 16 14 17 18 24 28 29 28 27 26 19 16 52 59 48 34 23 18 14 13 13 13 12 13 14
98 87 74 74 93 98 91 95 89 92 82 64 46 38 36 28 20 16 18 21 21 28 30 30 29 27 24 16 36 56 50 37 23 18 12 10 10 10 10 12 13 17 17
98 96 83 69 86 92 93 86 72 56 45 41 40 32 24 21 21 22 21 22 34 33 31 29 28 19 26 58 53 40 26 19 13 10 10 9 9 10 10 9 9 8 5
90 68 55 65 74 70 65 61 56 48 41 32 27 26 26 24 22 24 34 38 32 30 29 24 22 62 57 42 27 18 12 11 10 10 12 12 13 13 11 7 4 3 3
83 75 71 81 75 68 60 50 40 36 32 31 30 27 24 26 34 40 36 32 30 28 20 58 62 47 28 20 12 11 11 10 11 15 15 16 13 8 4 3 3 3 4
100 100 96 87 71 59 51 43 39 36 34 28 26 30 42 44 40 34 31 29 23 51 67 51 36 25 17 12 11 11 11 11 11 12 13 10 5 4 3 4 4 5 6
95 92 81 66 57 51 46 44 37 31 30 37 47 46 41 36 32 30 24 44 71 56 39 26 20 14 12 11 12 12 11 12 13 13 9 4 4 4 4 5 8 9 6
71 66 62 55 48 41 36 34 39 47 52 47 43 37 33 30 25 43 76 61 44 28 20 14 13 14 15 14 13 14 15 17 14 7 4 4 4 4 7 10 9 6 5
48 40 37 38 40 47 54 56 53 49 44 40 35 31 27 44 82 71 52 32 21 14 13 13 14 14 14 14 15 16 18 13 7 4 4 4 5 8 12 9 6 10 10
55 57 58 61 61 58 54 48 44 41 35 32 28 46 87 83 60 37 24 15 13 13 14 15 16 16 16 16 19 20 16 9 5 3 4 4 8 13 11 6 12 16 10
62 61 58 54 50 47 43 40 36 32 30 47 88 93 71 43 27 18 15 15 16 17 18 20 20 22 22 23 22 17 9 4 3 4 4 8 15 11 7 12 20 24 12

GFSMW_500_rhum_174.txt.gz
RH
20 34 40 19 14 11 9 6 10 60 99 56 50 60 69 68 56 46 39 32 24 15 14 14 12 12 11 11 13 17 26 26 25 22 40 29 34 32 23 17 18 21 22
20 45 44 26 26 13 10 9 7 28 68 96 100 80 77 73 62 50 43 36 27 17 15 14 13 13 13 13 14 23 30 32 27 31 34 31 30 35 22 17 19 20 21
23 40 40 32 36 17 11 10 10 20 38 80 90 84 77 76 66 56 49 42 31 20 16 15 14 14 14 14 16 33 29 29 27 25 27 29 26 27 18 17 19 20 21
22 27 30 40 40 22 13 11 9 35 84 97 90 90 95 78 69 60 54 48 37 24 17 16 15 15 15 26 38 29 28 25 16 16 19 21 23 24 16 19 23 22 22
23 31 40 49 40 27 16 12 18 42 53 92 96 88 90 85 75 64 60 52 43 33 20 18 17 16 17 36 30 27 35 35 15 12 14 20 25 23 18 21 24 22 23
29 31 38 40 36 26 17 12 16 67 86 97 93 91 92 86 81 74 66 59 52 51 22 20 18 19 20 38 28 43 40 32 28 24 14 17 25 21 22 24 25 24 25
46 27 32 34 32 24 24 16 49 63 94 95 86 92 93 90 87 83 76 68 64 69 40 25 22 21 22 33 30 30 36 37 44 40 16 12 23 28 26 22 23 27 26
83 20 26 28 26 22 55 46 60 57 93 97 78 95 89 89 90 90 81 78 57 78 69 43 40 25 25 29 31 35 44 50 43 25 11 17 29 29 23 23 25 26 24
99 20 23 26 22 20 54 61 73 77 96 99 99 80 100 90 90 91 80 55 54 84 75 68 30 33 27 36 42 48 50 62 55 13 11 26 30 26 24 25 26 23 18
82 33 18 21 21 18 60 100 100 98 98 92 96 100 92 86 92 92 80 65 78 85 90 67 55 38 38 39 60 56 60 47 20 10 23 29 29 25 26 25 23 14 10
53 36 20 20 19 17 35 100 93 94 95 97 98 90 97 96 96 96 96 69 84 79 76 72 77 44 46 55 64 72 60 26 11 20 28 28 26 26 25 21 12 29 37
57 41 21 21 18 17 71 96 86 85 94 91 100 84 97 97 97 100 98 87 94 88 96 93 80 72 42 70 74 65 44 16 16 27 27 27 26 25 17 20 44 37 16
62 37 28 27 16 16 40 100 97 97 77 97 100 99 97 93 92 97 96 96 95 95 94 52 59 73 80 77 78 55 15 15 25 26 28 27 24 18 41 43 21 11 11
54 35 23 21 15 14 28 95 96 95 88 100 98 99 99 88 99 94 94 98 96 91 74 79 78 80 81 73 36 17 17 26 29 28 27 20 30 50 32 13 11 11 13
48 42 24 16 13 17 95 98 98 98 96 95 98 94 94 91 89 97 95 96 94 93 90 64 71 93 46 28 19 24 31 31 30 26 22 46 44 22 12 12 15 18 18
58 30 15 51 96 100 99 98 99 98 94 100 94 83 79 88 96 97 97 96 94 85 51 88 93 39 23 24 31 33 31 31 23 39 55 31 14 12 16 20 20 18 15
86 91 99 99 99 98 99 99 98 100 99 100 96 98 94 98 98 92 79 86 93 94 95 84 32 25 32 36 36 32 29 29 58 45 18 13 16 19 22 21 19 17 14
98 100 100 100 98 96 98 96 98 99 100 96 99 99 91 98 98 97 90 89 73 66 44 30 28 38 39 36 32 29 50 58 31 14 14 19 23 24 22 21 18 15 12
98 100 100 100 93 90 94 93 97 97 93 99 100 99 98 96 97 89 75 66 54 38 29 33 40 41 35 31 39 63 46 18 15 20 22 26 25 24 22 19 15 12 10
61 80 82 91 94 100 99 100 100 100 99 99 98 97 97 96 96 82 53 41 33 32 42 44 40 33 31 54 62 36 16 19 24 28 28 27 27 24 19 16 13 10 7
54 67 66 80 99 99 100 98 99 98 97 96 93 88 66 56 49 43 37 36 45 47 44 36 32 41 66 55 26 19 25 29 33 31 30 28 25 22 17 13 10 7 5
85 79 75 90 91 97 95 88 90 87 84 94 96 78 50 44 39 39 47 50 48 40 35 35 50 76 40 21 25 31 37 37 34 33 30 27 24 19 13 11 8 5 4
89 90 86 82 96 91 85 82 69 62 60 56 54 47 40 42 49 54 52 43 38 37 49 74 69 33 22 32 42 42 41 39 36 34 30 26 20 15 12 9 4 4 5
98 96 95 91 86 85 69 66 64 62 55 47 47 50 56 59 57 46 37 37 43 67 88 60 27 26 44 48 47 46 43 38 36 33 28 20 15 12 9 4 4 6 9
99 96 98 97 91 75 66 58 50 44 45 50 57 59 57 50 41 37 42 62 97 88 48 27 33 45 48 53 54 49 42 40 36 30 21 16 13 10 5 3 5 10 8
84 87 84 68 58 54 50 50 56 64 65 64 59 49 41 39 43 58 87 99 82 40 30 36 47 54 59 61 52 46 44 39 30 21 17 14 9 5 3 6 11 9 9

GFSMW_500_rhum_177.txt.gz
RH
14 15 20 20 18 15 9 7 7 7 10 51 98 89 89 100 72 72 70 53 37 30 24 20 16 13 13 11 11 10 10 12 16 27 26 29 28 29 29 26 31 26 18
17 28 31 25 26 20 11 8 7 9 9 27 87 96 92 70 78 74 74 63 46 37 27 21 17 14 13 12 12 11 12 13 21 28 31 31 29 24 25 21 22 23 17
44 38 32 40 33 13 18 19 8 10 10 85 94 91 93 95 84 80 78 70 53 42 33 24 20 15 14 13 12 13 13 14 31 30 27 29 22 18 18 17 20 23 24
35 36 64 51 19 22 42 47 15 13 11 21 52 97 99 88 86 89 82 74 60 47 36 28 21 20 16 14 13 14 15 26 30 24 32 31 18 16 15 16 18 22 28
57 71 86 44 21 36 60 52 24 17 22 10 81 83 97 95 96 96 88 76 63 50 38 29 27 35 20 18 15 15 21 38 24 33 44 33 32 34 19 13 17 28 31
74 80 95 35 24 36 51 44 35 19 40 19 89 59 93 96 96 95 92 78 62 53 41 30 38 36 33 25 26 18 22 37 28 34 35 37 38 37 25 12 19 29 29
60 90 100 31 35 42 51 47 40 24 51 28 96 93 74 96 97 95 96 83 62 56 43 33 33 41 49 34 34 21 20 26 30 37 40 65 53 50 17 12 27 30 26
84 88 99 31 37 43 48 50 41 39 55 56 61 94 91 90 99 86 87 88 68 62 46 40 42 52 47 58 31 32 31 25 29 38 46 76 60 57 10 18 29 29 26
89 100 99 28 35 36 39 42 26 41 86 98 46 97 91 95 97 92 93 95 90 82 48 57 46 52 69 69 54 57 46 33 47 54 53 78 50 15 12 28 29 26 25
98 99 100 26 36 30 33 29 35 38 97 79 100 80 96 97 95 90 92 96 94 85 59 62 51 67 76 75 61 44 63 67 62 58 68 68 27 14 23 27 26 25 23
95 99 83 26 30 28 29 29 34 56 88 94 96 96 97 97 94 89 95 98 96 93 91 54 60 81 72 74 77 69 72 55 71 62 81 40 21 15 24 25 26 24 18
100 100 79 24 27 25 26 26 61 84 98 100 93 97 98 96 96 81 99 98 97 91 87 51 73 83 86 75 84 70 68 69 64 89 74 28 14 21 25 27 22 20 46
79 92 66 27 24 27 30 40 88 98 99 81 74 98 98 96 81 97 97 100 98 95 71 70 78 85 62 92 85 63 86 93 90 68 18 16 25 27 27 20 37 43 14
73 72 53 35 36 32 27 54 99 99 100 91 90 98 97 98 97 98 97 97 98 99 87 78 81 82 94 82 66 95 86 72 36 20 23 30 29 26 29 50 25 13 19
60 54 51 34 30 34 34 38 93 98 98 96 97 96 97 98 98 98 96 97 96 95 96 97 94 94 84 93 88 92 89 63 22 31 31 30 28 48 40 15 18 25 27
40 30 30 33 23 20 18 77 99 100 99 98 97 98 95 96 94 95 94 96 97 98 96 99 95 98 81 53 96 72 28 22 35 34 30 42 48 28 16 25 30 29 25
53 43 23 21 20 18 27 82 95 99 99 98 98 99 98 89 93 96 99 98 100 94 96 97 99 66 91 86 40 27 32 38 33 34 58 36 20 21 31 34 32 28 25
60 96 45 35 24 18 37 81 97 98 98 99 97 97 90 100 98 96 98 99 99 99 99 99 96 88 56 35 31 39 38 33 52 50 28 21 29 37 38 36 30 28 25
99 96 97 95 94 92 97 98 98 98 98 98 98 97 84 100 100 100 97 98 100 99 98 72 53 51 34 39 43 36 41 66 43 26 26 39 42 43 41 34 30 26 21
96 95 100 98 100 95 95 97 99 99 99 99 99 99 98 100 98 100 100 99 98 93 97 92 42 42 45 40 40 60 56 33 24 40 46 47 48 46 39 33 28 21 13
99 81 100 100 96 97 96 96 98 94 94 100 100 99 99 98 98 98 98 97 96 80 50 39 47 45 39 56 66 56 32 30 44 49 56 56 51 42 35 27 18 11 8
91 79 98 98 98 98 100 100 98 99 100 99 100 100 97 95 96 95 86 68 45 42 48 48 40 44 68 70 53 29 32 41 52 59 61 53 45 35 25 15 10 8 6
100 99 100 94 97 98 99 99 99 98 98 98 97 97 97 98 70 47 42 46 52 51 41 42 62 74 79 51 34 32 43 55 67 68 54 46 34 23 14 10 7 5 3
92 92 99 94 100 96 96 96 93 95 88 76 84 80 70 54 47 54 58 53 43 40 50 64 72 80 59 33 35 49 62 74 72 60 46 32 21 13 10 6 4 3 3
92 95 97 97 91 93 80 69 76 71 60 52 45 45 50 58 62 56 44 42 48 58 64 83 78 54 42 40 60 73 83 74 62 45 28 18 14 11 7 4 3 3 4
86 77 84 99 96 90 86 76 64 50 46 51 59 66 64 54 44 41 44 50 57 77 91 75 54 43 48 66 85 87 75 63 46 28 19 16 11 6 4 4 4 5 14

GFSMW_500_rhum_180.txt.gz
RH
33 45 34 21 15 10 10 15 11 8 9 8 8 19 52 90 96 96 100 83 76 70 37 20 17 14 13 13 12 12 11 10 10 10 11 15 25 31 32 31 23 23 18
32 27 22 20 16 13 12 13 14 12 11 9 9 9 31 86 96 96 96 88 94 87 56 25 19 16 14 14 13 13 11 11 11 11 12 17 27 30 29 27 19 17 16
26 29 21 32 28 31 30 26 21 18 13 12 9 10 8 30 98 98 96 92 97 93 69 34 24 18 16 15 14 13 12 12 12 12 13 26 29 27 26 24 24 22 18
32 31 33 34 44 29 28 25 24 24 19 16 12 9 9 50 58 85 89 95 95 93 69 43 29 22 24 21 16 19 14 12 13 14 14 27 22 34 40 39 35 34 34
39 41 40 26 27 31 32 22 26 31 27 18 14 9 9 20 75 96 97 86 90 87 64 54 42 27 33 31 20 22 37 14 14 14 20 32 25 32 40 42 50 54 53
59 58 47 37 40 45 38 45 49 30 21 24 19 9 10 95 98 95 96 98 97 94 89 80 58 38 25 34 21 25 40 37 31 16 21 25 30 32 39 44 65 62 55
55 58 59 62 63 60 66 61 29 35 52 38 26 11 8 29 92 98 89 97 97 97 95 88 68 39 33 24 20 41 46 37 44 51 26 22 28 36 46 46 50 67 16
71 61 60 82 93 97 71 33 46 55 80 56 39 13 23 98 100 97 97 95 95 94 91 92 61 58 35 22 24 35 59 45 63 43 31 40 47 70 57 67 67 66 14
80 58 47 99 99 92 40 44 60 70 77 71 35 32 50 96 96 97 96 96 96 96 95 85 70 54 36 27 29 44 48 65 56 57 58 58 61 72 68 61 63 18 17
85 72 71 100 100 57 46 49 66 80 65 68 51 70 44 98 97 96 94 97 96 97 93 93 81 51 35 32 38 46 67 87 80 68 78 86 78 74 71 65 77 67 26
88 70 94 100 100 39 42 47 85 78 59 54 81 82 100 86 98 97 97 99 100 96 87 76 76 85 80 83 44 56 81 95 67 62 85 80 64 66 83 43 18 22 24
88 93 100 100 36 34 40 43 79 82 46 65 97 97 90 98 96 94 96 95 98 96 95 97 98 96 65 48 50 64 96 71 76 86 92 97 75 76 31 19 30 30 28
58 82 100 84 26 36 43 65 77 64 78 85 100 100 79 100 98 97 99 99 99 95 99 97 98 95 94 73 64 81 91 80 76 86 95 96 57 57 25 30 31 28 33
76 90 96 31 31 47 62 53 84 77 86 100 100 97 83 90 98 98 99 97 97 98 96 99 92 70 76 68 73 94 94 96 93 92 96 89 44 25 35 32 30 42 33
78 68 60 37 54 76 55 45 100 97 98 99 99 99 99 97 96 89 100 97 96 96 99 99 92 82 73 88 94 96 86 94 86 89 85 38 34 35 33 39 44 24 27
48 68 72 70 74 68 56 50 99 100 100 100 100 99 88 97 98 98 98 98 98 97 97 94 96 97 98 100 96 97 97 76 89 34 34 39 36 39 46 38 28 36 43
26 28 30 29 27 26 40 39 95 98 99 99 100 100 97 98 98 98 96 94 97 96 98 99 97 99 98 96 97 94 85 51 36 39 41 37 43 47 33 38 44 46 49
92 100 60 24 26 27 25 73 95 99 99 97 99 99 94 98 92 83 92 94 98 96 96 97 95 91 95 96 96 85 51 45 44 40 43 51 45 38 39 44 48 56 50
100 100 98 100 60 25 35 80 96 98 98 97 97 100 99 98 98 92 90 88 89 95 96 97 100 97 91 67 89 68 46 43 40 54 56 40 40 43 44 55 59 51 34
100 100 100 80 86 86 82 88 96 96 96 100 99 97 97 99 98 95 98 99 86 96 98 97 95 90 95 67 52 46 41 45 56 59 38 36 46 55 61 60 49 34 22
97 98 97 98 98 100 97 99 100 99 99 98 96 100 95 96 97 96 97 100 95 97 96 98 94 72 59 49 44 48 63 69 59 37 37 46 56 67 60 47 32 20 14
86 88 84 99 99 98 96 96 96 98 97 98 99 98 98 99 100 99 99 99 98 95 93 89 78 61 46 46 56 63 68 55 36 40 50 68 71 61 45 27 18 14 12
97 92 92 100 91 87 97 99 99 98 99 99 99 100 100 100 96 98 90 71 59 60 57 56 48 45 44 53 65 75 53 45 43 63 77 72 61 44 25 18 15 13 9
83 86 99 100 100 94 94 100 100 100 100 100 100 100 98 97 97 89 77 68 62 58 52 42 43 48 58 88 76 57 51 55 73 77 71 60 41 24 19 16 14 9 6
77 88 100 99 90 87 96 98 97 96 95 95 95 92 90 87 82 72 65 61 54 44 45 46 52 75 91 79 65 59 68 77 80 75 60 40 24 20 18 15 9 5 3
86 78 82 86 80 87 80 75 77 81 67 60 59 57 59 64 66 62 53 44 42 42 52 76 93 94 84 76 70 80 82 84 76 60 40 25 22 20 16 11 6 3 3

GFSMW_500_rhum_183.txt.gz
RH
13 19 32 31 28 21 21 25 18 12 10 10 12 9 8 10 37 95 98 80 96 86 76 68 56 24 18 16 14 13 12 12 10 10 10 9 9 11 14 25 30 32 27
14 22 35 30 33 38 41 30 17 11 8 9 11 11 10 10 10 54 48 86 95 96 91 73 71 34 20 17 15 13 13 12 11 10 10 10 10 11 14 22 27 27 20
20 23 30 31 26 30 34 30 25 18 12 10 10 13 13 10 10 21 95 98 95 92 86 92 80 44 24 19 16 14 13 13 12 10 11 11 11 12 14 20 22 19 24
24 27 28 25 23 21 20 22 21 19 16 11 10 12 14 12 11 11 95 97 98 97 97 96 94 64 28 25 17 16 15 14 13 12 12 12 12 13 13 16 17 22 36
46 40 40 43 44 25 17 15 24 32 32 20 12 18 14 16 12 12 58 94 97 97 97 96 95 75 45 26 19 24 29 36 19 28 30 26 27 14 20 19 20 31 55
44 30 37 48 44 39 40 37 23 26 29 28 25 25 19 16 12 10 15 64 97 96 97 96 94 95 64 34 22 34 48 42 24 35 52 32 35 51 22 40 25 37 61
55 43 48 50 46 46 32 36 50 36 30 33 27 20 19 17 16 10 15 22 85 98 97 96 95 95 76 37 24 34 50 57 28 36 64 63 38 57 60 43 40 58 66
59 61 50 65 67 44 27 54 72 61 46 43 48 37 27 25 18 10 10 41 70 97 98 92 95 96 88 72 47 41 32 26 20 41 43 78 70 71 51 53 75 80 89
61 68 63 59 55 44 51 92 82 81 76 69 62 49 39 27 16 9 53 16 87 98 96 96 95 86 90 67 62 30 26 22 22 38 48 51 71 71 83 74 90 96 86
70 58 51 64 75 74 68 86 90 85 59 39 35 35 29 30 12 9 91 48 98 96 96 97 98 97 92 84 80 84 39 28 33 43 66 64 92 80 68 78 91 94 78
82 70 88 83 86 99 99 67 48 43 42 43 62 67 51 44 12 93 100 98 95 96 96 97 92 88 96 74 83 65 36 41 56 66 87 88 94 68 68 72 94 89 61
95 96 80 99 93 100 69 56 58 64 74 97 100 89 82 94 100 80 99 95 97 96 97 96 97 97 97 78 81 76 48 60 74 78 70 92 85 72 86 89 92 79 35
61 81 80 100 56 35 42 41 52 99 100 100 100 55 97 97 99 99 100 93 96 96 98 97 97 97 93 76 72 76 82 79 62 94 96 98 99 99 93 94 71 36 38
76 100 100 34 31 41 47 83 96 100 99 100 98 99 100 100 99 97 94 95 98 97 96 96 72 63 75 93 99 86 70 83 95 96 100 99 96 97 92 48 39 39 39
65 71 34 36 49 86 92 100 100 100 98 92 99 100 100 98 98 97 99 97 97 98 97 96 93 97 96 99 99 92 90 93 95 96 92 96 94 55 40 40 40 44 42
56 44 66 96 93 79 93 100 100 100 100 99 100 99 94 100 100 97 100 100 98 99 99 100 94 96 98 95 88 92 97 98 100 98 93 86 44 42 42 45 45 44 42
37 27 30 37 36 64 98 99 100 100 100 100 99 100 100 98 81 90 95 98 100 98 99 95 95 97 99 98 100 96 98 98 98 95 59 46 43 44 49 50 43 41 40
80 100 84 29 49 74 96 92 100 100 99 99 98 99 100 97 99 96 95 95 99 96 98 100 99 100 100 98 99 98 98 99 89 69 51 44 47 51 52 41 41 40 47
100 100 100 99 38 34 55 89 98 100 100 100 100 99 97 99 98 93 95 98 99 100 100 97 98 99 100 99 99 99 92 76 62 50 47 50 56 52 43 41 43 56 61
90 100 100 100 88 52 71 98 98 99 99 99 98 98 98 100 96 95 100 99 98 97 96 98 99 98 100 99 98 86 64 51 47 48 58 60 55 47 46 51 62 60 45
92 98 82 94 98 94 95 100 97 100 98 97 94 90 97 97 97 98 99 98 99 100 99 99 100 100 99 90 77 73 62 46 49 60 68 60 53 52 63 65 59 45 27
83 94 95 99 97 100 97 94 91 92 95 98 99 100 100 100 99 99 98 98 98 99 99 100 100 90 77 71 59 47 48 59 73 75 63 58 66 69 67 60 42 27 19
80 72 86 96 97 98 99 100 98 99 98 100 100 97 100 100 99 100 99 98 100 100 96 76 62 60 57 48 48 62 74 82 76 68 69 74 74 70 60 41 26 19 13
84 86 80 85 83 90 91 95 97 99 98 100 100 100 100 94 99 100 100 100 89 76 71 70 64 49 47 56 76 87 89 79 78 75 78 77 72 61 41 26 20 15 12
95 100 98 99 95 95 97 96 97 100 100 100 100 100 100 100 100 99 99 95 92 89 73 51 50 61 82 88 92 92 90 82 82 84 82 75 61 40 27 21 16 14 11
99 98 98 94 82 82 98 100 100 99 99 96 97 94 88 80 78 79 83 79 61 49 50 51 66 86 91 93 94 93 85 87 88 85 76 60 40 29 23 18 15 11 7

GFSMW_500_rhum_186.txt.gz
RH
6 7 7 8 8 11 16 16 19 15 15 14 12 10 8 6 4 3 26 77 64 97 96 96 95 94 69 31 18 16 13 12 12 11 10 9 9 9 9 10 16 19 24
11 11 10 12 11 13 21 25 26 23 24 25 21 16 11 8 6 4 4 9 71 96 97 97 92 97 91 57 23 18 15 13 12 12 11 10 10 10 9 10 10 13 19
16 16 19 15 15 14 15 24 27 27 26 32 28 20 13 12 9 6 5 6 40 94 98 97 98 99 95 92 47 20 17 14 13 12 11 10 10 10 10 10 11 12 15
16 17 21 28 30 29 22 18 16 20 26 38 34 18 12 12 12 9 10 8 10 77 98 95 96 96 96 89 49 25 18 18 14 13 12 10 11 11 13 14 18 14 19
45 37 25 16 20 25 28 29 31 18 17 25 34 29 15 12 14 11 10 9 8 37 91 95 91 98 96 95 62 28 20 20 26 14 13 11 12 16 16 28 32 33 35
39 41 44 38 34 38 39 44 38 31 31 19 21 23 23 18 11 15 13 15 10 14 52 93 98 97 96 96 88 42 30 40 26 18 13 27 18 50 68 65 41 55 44
56 52 37 34 48 48 41 40 40 34 36 34 19 16 18 17 15 13 15 15 14 10 26 94 96 100 96 97 88 47 53 47 32 17 44 67 42 54 48 59 63 57 66
76 68 55 48 52 28 30 34 58 52 43 42 36 27 31 34 26 13 17 14 14 10 15 95 99 99 97 97 96 90 85 54 29 55 74 81 46 49 67 73 84 77 53
62 38 48 54 54 54 38 44 45 47 33 31 46 36 34 33 27 28 25 16 14 13 17 91 97 98 97 96 96 96 94 66 36 84 58 66 27 34 62 64 86 75 79
67 53 42 73 86 63 58 67 61 52 53 87 81 70 58 51 34 27 24 16 20 53 77 91 97 97 97 99 98 90 81 45 70 42 29 34 28 40 58 86 96 94 81
29 51 58 98 76 73 74 86 84 99 100 100 100 88 82 66 48 32 20 20 16 98 57 90 98 98 97 98 96 97 96 91 54 35 33 31 44 56 73 95 96 97 85
57 84 94 100 83 75 80 100 100 90 100 91 85 80 80 66 47 32 21 15 66 36 98 99 98 100 98 98 97 98 97 94 94 95 87 44 64 72 87 97 95 89 97
62 78 89 100 78 41 42 56 53 56 59 50 41 37 51 56 44 24 18 45 100 100 48 100 98 98 98 97 98 97 96 98 94 64 64 84 84 93 98 94 94 100 80
43 74 33 38 41 43 52 69 77 85 91 93 85 68 53 59 58 30 16 65 100 100 98 97 98 99 97 96 98 98 97 99 98 94 77 80 91 94 93 98 98 72 41
49 36 44 65 69 76 100 100 97 99 100 100 92 76 95 73 96 94 100 100 100 98 99 100 96 96 96 98 98 97 99 100 98 90 95 96 97 96 98 94 52 40 40
66 74 51 72 79 90 100 100 100 100 100 100 100 100 98 100 100 100 99 99 98 98 97 98 99 99 99 97 98 100 99 100 99 96 97 98 100 100 83 49 46 44 44
80 41 68 88 96 98 100 99 97 93 100 100 100 100 100 99 99 100 100 99 99 99 98 99 98 97 99 99 100 97 98 96 98 100 100 100 92 75 58 51 49 45 48
98 98 60 96 99 98 94 100 98 91 99 100 100 100 100 99 99 99 100 98 97 99 99 97 96 98 99 97 99 97 99 99 100 100 100 95 76 58 49 48 50 52 51
93 100 93 88 55 74 98 99 100 98 100 100 100 99 99 99 99 100 99 98 98 97 97 95 98 98 99 99 98 98 100 100 98 100 87 60 52 50 60 59 61 58 58
99 94 97 87 72 72 96 100 100 100 99 100 100 96 99 99 100 100 100 99 99 100 100 100 98 100 98 99 100 100 98 97 95 67 66 53 54 64 67 69 60 69 69
100 98 98 87 100 99 97 99 100 99 100 100 100 100 99 98 99 99 100 99 98 97 98 98 100 99 100 100 99 98 95 84 76 58 54 68 68 71 71 71 72 63 60
100 98 100 93 97 100 91 97 100 100 100 98 99 99 99 100 100 100 100 100 100 100 99 99 100 99 100 98 100 95 80 56 50 70 76 78 78 79 77 73 67 61 51
87 83 95 100 100 92 90 79 96 99 100 98 97 98 100 100 95 97 100 100 100 100 100 100 100 100 100 85 68 58 53 60 76 86 89 84 84 80 78 72 64 52 36
93 85 80 96 100 100 98 98 96 92 90 88 93 100 100 100 100 100 100 100 100 100 100 99 87 72 68 65 52 54 68 82 94 93 92 87 86 85 78 68 51 36 28
97 92 88 88 94 98 99 93 96 99 95 90 96 100 100 100 100 100 100 100 99 94 91 93 95 86 60 53 67 79 89 98 99 94 91 95 89 81 70 52 36 30 18
99 100 96 86 96 90 85 94 96 98 100 100 100 100 99 100 100 100 99 96 97 96 92 74 55 53 65 80 87 99 100 100 97 100 100 91 82 73 54 38 30 18 12

GFSMW_500_rhum_189.txt.gz
RH
6 7 7 7 6 5 5 6 6 5 5 5 5 5 5 4 4 4 3 3 5 58 91 98 97 96 95 96 95 70 29 16 13 12 12 12 12 11 10 9 9 10 14
13 10 10 11 10 9 8 6 6 7 8 8 9 7 7 7 6 5 4 4 3 17 79 69 98 94 97 93 97 93 56 18 16 13 12 13 13 12 10 9 9 9 10
18 16 15 13 14 14 13 12 10 11 9 10 14 16 13 10 10 9 8 6 5 4 16 29 95 97 96 97 98 97 91 25 19 15 13 14 12 12 10 10 10 10 10
28 31 26 21 21 22 19 13 16 14 16 14 12 13 18 16 18 19 16 12 9 6 6 78 96 97 96 100 96 97 97 56 21 17 14 13 13 12 11 11 11 12 12
41 40 35 33 35 30 30 33 34 21 18 23 17 15 18 20 18 22 20 15 10 9 6 23 89 99 98 96 97 97 96 88 28 19 15 14 13 12 13 15 12 15 28
28 35 34 36 34 22 40 40 36 29 22 14 23 20 17 18 20 22 25 17 13 12 10 7 6 44 74 95 97 97 96 97 83 33 23 17 23 18 16 13 15 27 42
45 43 36 39 37 34 34 24 30 38 32 24 17 28 26 18 23 27 25 16 13 13 13 11 6 8 16 97 98 97 96 96 89 50 26 36 31 23 22 18 30 57 72
52 54 44 29 34 52 59 38 32 35 36 41 40 31 31 30 22 27 29 22 13 15 15 16 10 6 9 59 98 96 96 96 97 84 35 54 75 44 41 60 65 63 76
65 22 21 31 45 42 54 65 61 48 34 34 36 45 43 48 24 20 23 24 16 14 18 14 13 9 6 17 95 98 98 96 97 55 57 84 65 50 68 71 85 50 62
29 31 46 54 75 88 100 95 68 55 46 40 36 72 61 52 31 21 20 29 22 15 19 17 76 87 11 22 96 94 98 98 81 55 75 89 81 79 94 91 48 36 61
30 35 53 62 87 91 95 80 74 72 70 65 51 73 70 51 46 24 31 33 32 19 18 15 38 100 31 47 99 98 98 99 97 95 97 92 88 93 69 40 35 51 62
33 45 60 60 65 70 70 76 68 68 89 96 88 79 76 82 66 38 36 37 34 28 23 21 45 100 76 87 91 95 96 99 98 98 87 68 84 80 40 42 50 56 58
48 31 30 39 41 44 46 43 54 74 89 98 100 100 100 100 80 51 41 36 32 29 22 87 99 95 69 86 98 100 98 99 99 93 97 99 91 88 95 81 67 70 82
56 66 65 75 87 86 93 99 92 68 52 55 59 97 100 100 88 64 43 45 33 23 30 76 100 99 98 98 100 98 98 97 97 98 99 97 97 99 89 80 87 97 98
41 59 80 87 80 98 93 100 100 100 94 79 65 40 52 53 76 65 43 40 24 25 21 80 100 98 98 95 98 100 99 98 97 97 96 96 98 98 95 97 100 90 93
54 43 70 79 100 94 100 100 82 100 100 100 90 83 79 58 65 55 47 39 29 43 57 100 100 89 96 98 100 99 99 98 96 95 98 98 92 98 100 93 89 94 69
98 70 61 84 91 100 100 100 73 100 100 100 100 97 74 66 62 78 71 84 96 99 98 100 100 100 99 100 99 100 100 99 100 97 96 95 100 98 96 98 96 76 60
84 69 62 55 71 98 94 92 88 96 79 100 100 100 100 100 100 100 100 82 73 100 100 99 98 99 100 100 99 100 100 96 97 99 100 100 96 96 96 87 65 56 55
96 89 69 78 58 92 96 94 97 88 89 100 100 100 100 100 99 86 92 100 98 100 100 99 99 100 99 100 100 98 98 100 99 100 98 95 96 92 72 61 59 56 61
99 100 100 78 98 100 92 100 100 92 96 100 99 100 100 98 95 96 99 100 100 100 100 100 100 100 99 100 99 99 100 100 95 94 100 98 76 73 73 67 69 68 73
100 100 100 98 100 98 98 96 99 100 98 96 94 91 93 100 100 100 100 100 100 100 100 100 100 99 99 100 100 99 97 98 100 98 96 84 81 68 75 83 87 80 83
89 98 100 95 100 100 99 100 93 94 98 98 98 100 100 100 100 100 100 100 100 100 99 99 99 100 100 97 94 98 99 100 99 90 75 69 77 79 85 87 88 84 77
94 100 100 96 100 100 100 98 99 94 92 99 100 99 100 100 100 100 100 100 100 100 100 98 100 97 96 99 100 100 100 82 64 68 80 96 93 92 93 93 84 74 70
97 99 98 100 100 98 97 100 99 98 94 94 100 100 100 100 100 100 100 99 98 100 100 99 100 100 100 100 89 72 69 68 79 92 100 96 94 100 92 82 78 74 67
100 98 99 100 100 100 100 99 99 99 100 98 99 100 99 99 100 92 95 100 100 100 100 100 100 96 88 88 88 75 70 90 100 100 99 99 100 93 87 85 80 72 59
100 96 89 100 99 100 100 100 98 90 87 86 85 87 96 100 100 100 100 100 100 100 100 100 99 94 78 71 72 77 91 93 98 98 100 99 97 92 89 86 79 63 48

GFSMW_500_rhum_192.txt.gz
RH
9 7 11 11 10 7 6 7 6 6 7 10 11 11 11 11 11 10 8 6 5 4 4 23 61 67 91 90 85 88 82 85 65 44 18 13 12 11 13 13 12 10 9
10 10 18 21 16 14 13 9 8 7 7 6 5 6 8 9 9 8 8 6 5 4 4 7 26 48 98 98 96 96 81 84 94 58 27 21 13 12 13 13 13 11 10
14 14 16 21 33 34 29 21 16 13 10 9 7 6 5 6 6 6 6 7 6 6 4 4 6 50 88 61 94 97 96 97 95 93 87 28 25 13 13 13 14 12 10
19 17 16 18 21 30 27 22 24 27 24 21 12 9 8 6 6 9 10 9 8 8 7 5 4 15 98 60 99 96 96 97 94 98 93 65 21 22 15 17 14 13 11
23 18 16 20 22 22 26 20 22 22 26 24 22 16 12 13 11 10 13 14 11 10 9 8 7 5 73 80 98 98 98 98 99 97 87 86 25 31 20 16 15 14 14
19 21 32 30 28 24 20 23 29 33 31 33 33 29 18 19 16 12 18 23 19 15 13 11 9 7 23 72 100 96 97 98 96 98 97 95 66 25 28 32 48 16 15
27 34 44 44 39 37 31 26 26 27 45 35 46 42 28 20 18 18 16 20 23 22 23 20 16 12 9 7 19 36 94 97 99 98 100 97 83 28 36 22 18 15 23
36 64 66 44 31 18 23 25 38 32 25 55 53 51 30 27 20 27 19 16 23 26 27 26 18 13 10 9 7 8 63 97 99 100 99 96 96 66 24 22 20 28 44
50 86 49 33 28 45 47 58 65 54 40 62 73 50 37 40 19 27 28 17 19 31 29 24 16 14 13 13 10 9 43 95 98 96 96 97 96 91 90 57 46 43 53
68 100 73 47 47 47 53 66 94 100 100 100 73 54 43 46 51 40 34 25 22 32 32 24 16 16 15 16 11 9 21 49 33 94 96 98 100 97 90 59 77 92 81
100 82 100 54 40 43 46 46 73 92 98 72 58 52 41 32 44 42 39 39 25 26 29 26 18 19 18 14 9 10 10 25 26 37 98 97 99 92 74 70 97 88 96
93 58 54 61 68 83 90 100 48 86 81 68 56 81 55 44 58 74 60 55 36 23 21 24 18 19 14 39 100 20 27 100 45 96 98 98 99 85 63 81 94 93 97
48 53 63 62 77 100 99 91 89 45 63 86 83 93 100 97 97 98 77 62 39 23 23 23 17 15 12 24 86 87 81 97 78 96 98 100 96 94 81 97 96 93 92
71 42 71 78 72 100 93 100 100 100 66 62 91 92 100 100 100 97 84 52 27 27 37 34 22 15 20 21 72 100 100 98 95 100 96 100 100 99 99 97 86 96 96
84 73 55 83 100 99 100 97 88 90 88 62 57 100 92 95 100 100 86 51 39 35 42 39 38 35 64 56 100 97 100 100 100 98 100 100 97 98 99 100 98 93 96
94 54 50 70 100 98 92 94 87 82 94 100 84 54 100 100 100 98 77 57 41 44 51 46 54 76 100 100 100 99 100 100 100 100 100 99 99 98 98 98 95 97 98
96 72 63 62 99 100 100 100 99 93 89 99 100 52 41 91 99 95 82 67 57 49 46 58 100 93 97 98 100 100 100 100 100 100 100 99 99 98 98 97 98 99 100
100 94 73 80 86 93 100 100 100 98 88 90 100 99 68 45 65 76 76 69 100 60 56 100 100 89 100 100 100 100 100 99 99 99 98 99 98 98 100 99 100 100 100
96 99 100 96 98 100 100 94 100 100 98 100 99 99 100 89 61 63 83 57 48 65 67 100 100 99 100 99 100 100 100 100 98 99 99 99 98 100 100 99 100 100 82
96 99 99 96 98 100 100 95 92 81 80 77 73 72 96 100 90 90 100 100 100 100 80 89 100 100 100 100 100 100 99 99 99 99 100 99 100 99 100 100 88 80 68
92 95 98 98 95 100 91 100 98 92 89 77 77 76 75 81 99 100 100 100 96 100 100 100 100 100 100 100 100 99 99 99 100 100 99 100 100 100 99 86 71 78 81
96 95 100 94 99 100 98 94 100 100 100 97 98 91 100 98 92 91 92 99 99 100 100 100 100 100 100 100 100 100 99 100 100 100 98 100 100 91 81 87 87 81 74
99 96 100 92 98 100 100 98 100 99 91 80 74 89 95 88 88 100 100 100 100 100 100 100 100 100 100 99 100 100 100 100 99 99 98 88 88 95 98 86 81 79 72
99 100 96 98 98 98 99 99 100 99 98 100 100 100 100 100 100 100 100 100 100 100 100 100 100 100 100 100 100 100 100 99 92 85 89 92 97 95 79 77 80 78 74
99 98 96 97 97 100 100 100 98 97 98 100 100 100 100 100 100 100 100 100 100 100 100 100 100 100 100 100 99 99 96 94 89 89 98 95 80 88 97 88 82 82 84
97 96 97 99 97 98 99 100 100 100 99 98 98 100 99 100 100 100 99 100 100 100 100 100 100 100 100 100 99 91 77 83 85 82 81 95 100 92 93 98 94 83 77

GFSMW_500_rhum_198.txt.gz
RH
10 6 7 9 9 7 7 13 13 12 12 9 8 8 7 6 7 7 5 6 14 17 17 15 12 10 7 6 15 93 97 96 79 96 96 74 46 52 45 23 15 13 13
8 7 10 10 8 6 10 14 16 19 17 14 10 7 9 10 6 6 8 8 9 13 16 17 16 15 12 8 6 7 31 32 84 96 96 94 91 70 61 59 44 20 14
7 8 10 9 8 10 13 15 16 17 18 15 13 12 8 10 12 7 7 7 9 10 12 15 17 16 16 13 9 6 5 9 30 70 95 98 86 100 88 78 75 70 27
8 11 9 10 10 11 14 18 16 17 21 24 18 20 19 12 12 16 9 7 7 8 10 12 14 15 15 14 11 9 6 5 6 24 49 99 90 96 98 93 86 78 52
9 11 12 12 11 15 18 38 44 35 28 34 34 26 21 22 15 13 16 13 8 7 6 8 11 12 12 12 12 10 8 6 5 90 89 71 97 98 96 100 97 97 86
9 8 11 10 14 28 42 48 38 26 41 55 57 45 35 31 30 23 16 18 20 14 9 7 7 9 10 10 11 10 9 7 6 55 71 98 96 99 96 95 96 98 90
7 9 10 12 38 43 23 10 8 12 20 18 17 20 21 20 17 20 29 24 24 21 21 13 10 9 12 17 30 16 11 8 6 17 52 93 97 99 87 92 97 97 96
7 8 9 20 50 35 11 16 16 24 24 22 30 43 44 26 21 20 19 27 38 32 42 27 13 13 13 18 19 19 18 11 8 5 7 14 54 94 68 75 95 93 98
8 9 15 36 62 34 13 17 26 35 52 58 54 34 45 40 26 25 31 24 30 48 46 35 18 16 17 22 27 23 16 15 12 8 6 5 6 12 91 98 100 95 100
7 8 22 49 64 38 22 28 36 54 47 61 58 39 48 55 49 49 55 42 34 55 57 41 24 21 21 30 37 39 26 17 14 12 10 7 6 7 14 74 71 83 96
8 8 25 44 62 56 30 36 46 54 81 95 84 53 54 66 90 77 52 63 95 76 61 44 29 32 24 28 36 40 36 26 21 16 14 12 10 11 8 33 52 63 91
8 10 25 61 77 78 73 45 61 87 90 74 81 69 67 81 97 100 83 82 100 97 61 48 41 38 26 27 34 42 37 29 25 22 18 13 11 10 12 23 34 35 97
9 15 31 79 74 83 85 58 65 92 100 78 70 76 69 91 100 100 100 100 98 73 49 39 48 45 26 28 35 40 36 37 26 23 23 17 16 13 12 18 85 97 89
8 25 40 90 79 78 97 99 88 96 100 75 60 59 82 82 100 99 80 73 56 50 46 65 52 55 32 32 41 36 28 32 31 30 24 16 35 100 28 43 98 92 92
11 37 46 74 80 88 98 100 99 95 92 94 84 58 86 84 89 87 100 97 96 84 76 64 68 54 30 32 38 36 38 34 35 40 81 79 90 100 100 100 100 100 100
11 44 60 82 71 95 100 99 100 94 95 100 76 77 83 94 100 83 92 100 95 95 83 94 77 48 32 35 39 48 38 68 29 41 82 83 98 100 100 100 100 100 100
14 52 86 88 68 97 100 100 100 100 100 100 86 59 52 83 76 99 100 100 92 99 100 84 65 41 30 32 35 44 44 36 26 26 26 100 94 100 100 100 100 100 100
27 59 97 86 82 100 96 96 100 100 100 100 100 96 56 94 81 97 100 95 100 100 87 80 66 48 34 32 36 45 46 50 36 37 89 100 100 100 100 98 99 100 100
38 67 99 95 87 100 100 93 99 100 100 100 98 68 37 80 85 79 95 100 100 100 69 54 47 47 45 47 50 49 38 39 54 75 96 100 100 100 99 100 100 100 99
50 82 94 96 90 100 100 99 92 100 95 100 99 95 51 48 100 98 99 96 90 69 68 66 56 52 52 52 47 39 51 80 96 99 100 100 100 100 100 100 99 100 100
60 90 96 92 94 100 100 97 96 96 99 96 100 100 64 66 81 87 89 81 75 77 68 57 48 53 68 78 78 87 88 87 94 100 100 100 100 100 100 100 100 100 100
64 89 99 91 96 100 100 100 100 96 87 100 92 88 99 97 92 77 70 64 61 55 70 82 69 57 84 92 100 100 100 100 100 100 100 100 100 100 100 100 100 100 100
71 91 100 92 98 100 100 100 100 100 95 94 99 92 98 96 73 99 100 100 100 99 89 98 100 100 100 100 100 100 100 100 100 100 100 100 100 100 100 100 100 100 100
75 96 100 90 98 100 100 100 100 100 98 100 100 100 100 100 100 100 100 100 100 100 100 99 100 100 96 100 100 100 99 100 100 100 100 100 100 100 100 100 100 100 99
78 100 100 91 94 100 100 100 100 100 99 99 100 100 100 100 100 100 93 82 78 81 79 74 86 92 98 100 100 100 100 100 100 100 100 100 100 100 100 100 100 99 100
81 100 100 100 92 98 100 100 100 100 100 100 98 92 95 98 97 91 97 98 98 99 100 100 100 100 100 100 100 100 100 100 100 100 100 100 100 100 100 100 96 95 94

GFSMW_500_rhum_204.txt.gz
RH
18 16 14 14 15 16 15 13 6 5 4 3 2 3 4 6 6 6 6 5 4 5 5 6 4 3 2 12 19 16 11 9 51 84 81 91 96 99 96 91 72 29 21
24 21 19 18 18 21 20 8 5 4 3 3 3 6 8 8 10 9 11 15 10 6 6 6 6 5 4 3 8 20 19 11 10 11 10 45 78 98 97 93 96 87 73
33 31 29 28 28 26 16 5 4 4 3 5 8 10 17 20 22 24 22 19 20 13 8 8 8 7 5 5 5 8 19 20 16 12 10 10 58 92 94 97 97 95 91
43 43 42 41 34 29 11 6 4 4 5 9 12 18 7 6 7 7 8 9 22 35 25 14 8 8 7 6 6 7 10 16 21 20 15 11 36 99 84 76 97 98 98
37 42 45 41 38 24 8 5 4 4 8 9 24 19 8 8 13 13 11 12 11 14 38 35 21 18 10 8 7 6 8 9 16 21 23 17 14 11 8 12 38 96 96
41 44 46 46 36 12 6 5 4 4 7 9 32 31 10 13 16 18 10 14 16 18 13 23 37 37 22 13 13 7 7 9 12 16 20 22 20 18 14 10 8 17 72
44 44 48 48 24 8 5 5 4 4 7 9 16 31 17 11 17 22 13 11 16 19 16 19 18 40 39 32 23 14 7 7 10 13 16 17 21 20 17 15 11 9 8
43 51 52 39 13 6 5 5 5 6 8 16 30 37 49 34 32 28 26 23 25 33 23 23 22 22 34 40 42 25 14 9 8 10 27 17 17 19 18 16 15 13 11
59 61 50 19 7 5 5 5 5 7 16 50 56 54 62 81 75 44 36 54 61 61 58 38 24 30 26 36 64 37 21 13 15 11 14 15 16 16 16 15 15 14 12
67 62 37 10 6 5 5 5 6 11 38 49 48 59 80 96 88 88 68 86 50 56 44 56 49 49 50 67 81 54 35 21 14 14 22 55 58 100 60 17 15 13 11
67 36 14 6 6 5 6 6 8 23 40 51 64 74 87 98 92 93 96 72 48 43 46 61 75 53 57 80 84 79 52 25 47 36 61 66 90 85 46 21 14 12 10
48 20 7 6 5 5 6 6 14 35 38 72 81 82 79 87 78 86 83 48 36 41 54 81 87 55 58 74 100 82 71 29 21 39 47 49 97 100 70 22 18 14 14
40 10 6 6 5 5 6 7 34 40 60 87 89 89 83 93 92 75 39 38 60 72 73 86 96 72 71 75 99 95 70 98 56 71 66 81 82 60 100 37 51 31 17
15 7 6 5 4 5 6 24 48 55 83 91 95 97 100 99 73 47 46 77 68 66 50 99 92 85 100 85 97 99 69 51 44 47 94 99 76 65 44 100 94 79 23
9 7 6 5 4 5 10 48 59 78 87 94 100 100 97 87 49 62 72 84 79 84 48 82 94 91 100 100 100 100 64 50 54 42 88 77 74 47 38 65 65 36 36
7 7 7 5 4 5 26 60 73 82 88 89 95 93 92 58 73 72 76 68 93 100 100 100 100 74 100 82 100 96 47 51 46 48 90 96 52 40 38 87 43 37 72
8 10 6 5 4 8 41 65 82 86 93 88 91 88 97 62 81 78 86 92 89 96 100 100 100 100 100 100 100 97 58 44 36 49 66 47 42 42 44 53 44 55 77
11 10 5 5 6 21 58 73 87 88 96 89 87 84 76 54 49 62 95 93 100 97 100 100 100 100 100 100 100 95 51 35 46 56 65 56 99 55 73 42 31 40 32
10 5 5 5 7 38 68 79 79 84 95 92 84 84 76 57 63 71 90 99 94 88 100 96 95 92 86 86 84 77 44 41 52 48 53 90 49 55 45 36 41 47 66
7 6 5 6 18 55 75 81 72 80 92 86 82 92 58 45 82 73 82 89 98 97 100 95 100 100 97 100 100 60 40 44 47 52 51 53 51 63 61 100 100 99 93
11 6 5 6 36 64 81 81 71 77 88 84 80 81 51 76 80 79 89 93 95 96 99 100 96 100 100 92 62 47 43 40 36 38 54 57 60 87 100 92 86 80 98
10 6 5 8 51 68 83 86 70 78 88 87 77 70 53 68 78 86 91 95 94 87 78 70 68 66 71 66 58 54 49 56 64 67 85 74 100 97 98 96 100 100 100
7 6 6 11 60 71 88 87 76 80 89 89 69 59 63 47 69 73 76 76 74 75 68 64 66 65 65 67 84 98 100 94 96 96 100 96 84 94 97 97 100 100 100
7 6 6 17 68 76 91 90 84 81 83 94 90 75 74 50 58 71 82 92 99 93 89 86 96 94 82 89 90 74 92 97 100 100 99 97 95 98 100 100 100 100 100
6 6 6 26 71 81 94 95 90 86 86 85 90 91 82 66 69 78 88 90 93 94 93 89 96 98 95 98 99 100 100 100 100 98 98 98 100 100 100 100 100 100 100
6 6 6 36 72 83 96 98 100 94 100 96 93 90 85 83 81 89 93 92 93 99 100 100 100 100 100 99 99 98 93 90 92 98 100 100 100 98 98 100 100 100 100